Location: Centerville
(32.8776°N, 96.6203°W)
Time: 19:18:36
(UTC+00:00)

Cosmos 1025 Rocket - Visible Passes

Search period start: 21 October 2021 00:00
Search period end: 31 October 2021 00:00
Orbit: 593 x 619 km, 82.5° (Epoch: 21 October)

Date Brightness Start Highest point End Pass type
(mag) Time Alt. Az. Time Alt. Az. Time Alt. Az.
21 Oct 3.1 11:39:33 10° S 11:43:53 80° E 11:48:12 10° N visible
22 Oct 3.1 11:52:51 10° SSW 11:57:05 55° W 12:01:20 10° N visible
23 Oct 6.0 10:30:25 10° SE 10:33:05 16° E 10:35:44 10° NE visible
23 Oct 3.8 12:06:34 10° SW 12:10:22 30° W 12:14:10 10° NNW visible
24 Oct 5.1 10:42:26 10° SSE 10:46:08 28° E 10:49:50 10° NNE visible
25 Oct 3.8 10:55:04 10° S 10:59:15 52° E 11:03:26 10° NNE visible
26 Oct 2.9 11:08:06 10° S 11:12:25 83° W 11:16:44 10° N visible
27 Oct 6.3 09:47:34 10° E 09:48:33 11° E 09:49:33 10° ENE visible
27 Oct 3.2 11:21:32 10° SSW 11:25:39 44° W 11:29:46 10° N visible
28 Oct 5.5 09:58:29 10° SE 10:01:34 19° E 10:04:39 10° NE visible
28 Oct 4.0 11:35:57 13° SW 11:38:56 25° WNW 11:42:29 10° NNW visible
29 Oct 4.9 10:16:09 26° NE 10:16:09 26° NE 10:18:32 10° NNE visible
29 Oct 4.8 11:53:12 13° WNW 11:53:12 13° WNW 11:54:37 10° NW visible
30 Oct 5.4 10:31:18 15° NNE 10:31:18 15° NNE 10:32:01 10° NNE visible
